Flag for Brazil Weather past 2 weeks in Rio Branco, Acre, Brazil

Now
64 °F

Clear.


Feels Like: 64 °F
Forecast: 64 / 90 °F
Wind: No wind

Location: Rio Branco Airport

Current Time: Jul 28, 2014 at 10:07:20 PM

Latest Report: Jul 28, 2014 at 9:00 PM


Visibility: 10 mi

Pressure: 30.09 "Hg

Humidity: 88%

Dew point: 61 °F

Location of Rio BrancoLocation

Historic Weather in Rio Branco — Graph

°F

Rio Branco temperature yesterday

Maximum temperature yesterday: 79 °F (at 2:00 PM)
Minimum temperature yesterday: 63 °F (at 12:00 AM)
Average temperature yesterday: 70 °F

Past Weeks' High & Low Weather Summary

 TemperatureHumidityPressure
High91 °F (Jul 16, 1:00 PM)100% (Jul 16, 5:00 AM)30.18 "Hg (Jul 16, 5:00 AM)
Low55 °F (Jul 25, 5:00 AM)41% (Jul 18, 2:00 PM)29.12 "Hg (Jul 25, 9:00 PM)
Average72 °F79%30.00 "Hg
* Reported Jul 13 9:00 PM — Jul 28 9:00 PM, Rio Branco, Weather by CustomWeather, © 2014

Note: Actual official high and low records may vary slightly from our data, if they occured in-between our weather recording intervals... More about our weather records

Advertising

Rio Branco weather history for previous 24 hours

 ConditionsComfort  
Time TempWeatherWind HumidityBarometerVisibility
9:00 PM
Jul 28
64 °FClear.No wind88%30.09 "Hg10 mi
8:00 PM66 °FClear.2 mph88%30.07 "Hg10 mi
7:00 PM68 °FPassing clouds.3 mph83%30.07 "HgN/A
6:00 PM70 °FPartly sunny.7 mph83%30.07 "HgN/A
5:00 PM73 °FPartly sunny.5 mph74%30.07 "HgN/A
4:00 PM73 °FPartly sunny.2 mph74%30.04 "HgN/A
3:00 PM77 °FPartly sunny.2 mph65%30.07 "HgN/A
2:00 PM75 °FPartly sunny.3 mph69%30.07 "HgN/A
1:00 PM75 °FPartly sunny.5 mph69%30.09 "HgN/A
12:00 PM75 °FBroken clouds.5 mph69%30.12 "HgN/A
11:00 AM73 °FPartly sunny.6 mph74%30.15 "HgN/A
10:00 AM66 °FPartly sunny.5 mph83%30.15 "HgN/A
9:00 AM66 °FPartly sunny.5 mph83%30.12 "HgN/A
8:00 AM66 °FPartly sunny.5 mph83%30.12 "HgN/A
7:00 AM66 °FMore clouds than sun.5 mph83%30.12 "HgN/A
6:00 AM64 °FMostly cloudy.5 mph88%30.12 "HgN/A
5:00 AM66 °FPassing clouds.5 mph88%30.09 "HgN/A
4:00 AM66 °FPassing clouds.5 mph88%30.07 "HgN/A
3:00 AM66 °FPassing clouds.5 mph88%30.07 "HgN/A
2:00 AM66 °FPassing clouds.5 mph94%30.07 "HgN/A
1:00 AM66 °FPassing clouds.3 mph88%30.07 "HgN/A
12:00 AM66 °FClear.2 mph88%30.07 "Hg10 mi
11:00 PM
Jul 27
68 °FPartly cloudy.5 mph88%30.09 "HgN/A
10:00 PM70 °FPassing clouds.2 mph88%30.09 "HgN/A
Weather by CustomWeather, © 2014

See weather overviewHow to use our weather pages